Granite Falls, MN

12:47 AM CST on February 27, 2017 (GMT -0600)
Granite Falls

Weather History for KGDB - May, 2013

Change the Weather History Date:

Sunday, May 12, 2013

  Actual Average (KMVE) Record (KMVE)
Temperature  
Mean Temperature 43 °F -  
Max Temperature 60 °F 69 °F 90 °F (1988)
Min Temperature 26 °F 45 °F 26 °F (1971)
Degree Days  
Heating Degree Days 22    
Moisture  
Dew Point 20 °F    
Average Humidity 41    
Maximum Humidity 77    
Minimum Humidity 18    
Precipitation  
Precipitation 0.00 in - - ()
Sea Level Pressure  
Sea Level Pressure 30.20 in    
Wind  
Wind Speed 7 mph (NW)    
Max Wind Speed 15 mph    
Max Gust Speed 22 mph    
Visibility 10 miles    
Events      
Averages and records for this station are not official NWS values.
T = Trace of Precipitation, MM = Missing Value Source: NWS Daily Summary

Daily Weather History Graph

Daily Weather History Graph

Search for Another Location

Airport or City:

Trip Planner

Search our weather history database for the weather conditions in past years. The results will help you decide how hot, cold, wet, or windy it might be!

Date:

Astronomy

May. 12, 2013 Rise Set
Actual Time 5:57 AM CDT 8:40 PM CDT
Civil Twilight 5:23 AM CDT 9:14 PM CDT
Nautical Twilight 4:41 AM CDT 9:57 PM CDT
Astronomical Twilight 3:51 AM CDT 10:46 PM CDT
Moon 7:51 AM CDT (5/12) 11:09 PM CDT (5/12)
Length of Visible Light 15h 51m
Length of Day
14h 43m
Waxing Crescent, 7% of the Moon is Illuminated
May 12
Waxing Crescent
May 17
First Quarter
May 24
Full
May 31
Last Quarter
Jun 8
New

Hourly Weather History & Observations

Time (CDT) Temp. Windchill Dew Point Humidity Pressure Visibility Wind Dir Wind Speed Gust Speed Precip Events Conditions
12:13 AM 36.7 °F 31.2 °F 19.2 °F 49% 30.25 in 10.0 mi NW 6.9 mph - N/A   Clear
12:33 AM 35.8 °F 30.1 °F 19.4 °F 51% 30.25 in 10.0 mi WNW 6.9 mph - N/A   Clear
12:53 AM 32.9 °F 26.7 °F 19.9 °F 59% 30.26 in 10.0 mi West 6.9 mph - N/A   Clear
1:13 AM 33.3 °F 27.9 °F 20.3 °F 59% 30.26 in 10.0 mi WNW 5.8 mph - N/A   Clear
1:33 AM 32.9 °F 27.5 °F 20.3 °F 60% 30.26 in 10.0 mi WNW 5.8 mph - N/A   Clear
1:52 AM 32.5 °F 27.1 °F 20.1 °F 60% 30.26 in 10.0 mi WNW 5.8 mph - N/A   Clear
2:32 AM 28.9 °F 21.9 °F 19.9 °F 69% 30.26 in 10.0 mi West 6.9 mph - N/A   Clear
2:53 AM 29.1 °F 22.1 °F 20.3 °F 70% 30.25 in 10.0 mi West 6.9 mph - N/A   Clear
3:13 AM 28.0 °F 20.8 °F 19.8 °F 71% 30.26 in 10.0 mi West 6.9 mph - N/A   Clear
3:32 AM 27.5 °F 21.1 °F 20.3 °F 74% 30.26 in 10.0 mi West 5.8 mph - N/A   Clear
3:53 AM 28.0 °F 20.8 °F 19.9 °F 72% 30.25 in 10.0 mi West 6.9 mph - N/A   Clear
4:13 AM 27.9 °F 22.6 °F 21.0 °F 75% 30.25 in 10.0 mi West 4.6 mph - N/A   Clear
4:33 AM 27.3 °F 20.9 °F 19.8 °F 73% 30.25 in 10.0 mi West 5.8 mph - N/A   Clear
4:53 AM 27.3 °F 19.1 °F 19.6 °F 73% 30.25 in 10.0 mi West 8.1 mph - N/A   Clear
5:12 AM 27.0 °F 19.5 °F 19.9 °F 75% 30.26 in 10.0 mi West 6.9 mph - N/A   Clear
5:33 AM 26.6 °F 20.0 °F 20.1 °F 77% 30.26 in 10.0 mi West 5.8 mph - N/A   Clear
5:53 AM 26.4 °F 19.8 °F 19.8 °F 76% 30.26 in 10.0 mi West 5.8 mph - N/A   Clear
6:13 AM 27.0 °F 20.5 °F 20.1 °F 75% 30.26 in 10.0 mi West 5.8 mph - N/A   Clear
6:32 AM 27.3 °F 22.0 °F 20.5 °F 75% 30.26 in 10.0 mi West 4.6 mph - N/A   Clear
6:53 AM 29.7 °F 24.7 °F 21.9 °F 73% 30.26 in 10.0 mi West 4.6 mph - N/A   Clear
7:13 AM 32.4 °F 26.9 °F 22.1 °F 66% 30.27 in 10.0 mi WNW 5.8 mph - N/A   Clear
7:32 AM 34.9 °F 29.0 °F 22.6 °F 61% 30.27 in 10.0 mi WNW 6.9 mph - N/A   Clear
7:53 AM 37.4 °F 31.4 °F 23.2 °F 57% 30.27 in 10.0 mi NW 8.1 mph - N/A   Clear
8:13 AM 39.2 °F 34.2 °F 23.9 °F 54% 30.27 in 10.0 mi NW 6.9 mph - N/A   Clear
8:33 AM 40.8 °F 36.2 °F 23.7 °F 51% 30.27 in 10.0 mi NW 6.9 mph - N/A   Clear
8:53 AM 42.6 °F 39.0 °F 23.7 °F 47% 30.27 in 10.0 mi WNW 5.8 mph - N/A   Clear
9:12 AM 43.9 °F 38.8 °F 23.7 °F 45% 30.27 in 10.0 mi WNW 9.2 mph - N/A   Clear
9:33 AM 45.7 °F 40.6 °F 22.6 °F 40% 30.27 in 10.0 mi West 10.4 mph - N/A   Clear
9:53 AM 47.5 °F - 22.6 °F 38% 30.26 in 10.0 mi NW 10.4 mph - N/A   Clear
10:12 AM 48.2 °F - 22.1 °F 36% 30.26 in 10.0 mi NW 8.1 mph - N/A   Clear
10:33 AM 49.3 °F - 19.2 °F 30% 30.26 in 10.0 mi WNW 12.7 mph 19.6 mph N/A   Clear
10:53 AM 49.6 °F - 19.8 °F 31% 30.26 in 10.0 mi NNW 12.7 mph - N/A   Clear
11:13 AM 51.1 °F - 20.7 °F 30% 30.26 in 10.0 mi NW 13.8 mph 18.4 mph N/A   Clear
11:32 AM 51.8 °F - 20.1 °F 29% 30.25 in 10.0 mi NNW 13.8 mph 20.7 mph N/A   Clear
11:53 AM 52.7 °F - 19.6 °F 27% 30.24 in 10.0 mi NW 15.0 mph 19.6 mph N/A   Clear
12:12 PM 53.1 °F - 18.3 °F 26% 30.24 in 10.0 mi WNW 12.7 mph 21.9 mph N/A   Clear
12:33 PM 53.6 °F - 19.9 °F 27% 30.23 in 10.0 mi WNW 13.8 mph 17.3 mph N/A   Clear
12:52 PM 54.1 °F - 18.0 °F 24% 30.22 in 10.0 mi NNW 11.5 mph 17.3 mph N/A   Clear
1:13 PM 54.7 °F - 19.4 °F 25% 30.21 in 10.0 mi NW 15.0 mph 19.6 mph N/A   Clear
1:32 PM 55.6 °F - 18.3 °F 23% 30.21 in 10.0 mi West 10.4 mph 18.4 mph N/A   Clear
1:52 PM 55.8 °F - 18.7 °F 23% 30.20 in 10.0 mi NNW 4.6 mph 16.1 mph N/A   Clear
2:13 PM 56.3 °F - 20.1 °F 24% 30.19 in 10.0 mi NW 6.9 mph - N/A   Clear
2:33 PM 57.4 °F - 18.9 °F 22% 30.19 in 10.0 mi WNW 10.4 mph 16.1 mph N/A   Clear
2:53 PM 57.6 °F - 18.7 °F 22% 30.18 in 10.0 mi NNW 10.4 mph 18.4 mph N/A   Clear
3:12 PM 57.9 °F - 18.9 °F 22% 30.17 in 10.0 mi WNW 12.7 mph 19.6 mph N/A   Clear
3:33 PM 58.1 °F - 19.2 °F 22% 30.17 in 10.0 mi NW 11.5 mph 17.3 mph N/A   Clear
3:52 PM 59.2 °F - 19.2 °F 21% 30.17 in 10.0 mi WNW 13.8 mph - N/A   Clear
4:13 PM 59.2 °F - 17.1 °F 19% 30.15 in 10.0 mi West 9.2 mph - N/A   Clear
4:32 PM 59.4 °F - 16.9 °F 19% 30.15 in 10.0 mi NNW 8.1 mph 18.4 mph N/A   Clear
4:53 PM 58.5 °F - 15.4 °F 19% 30.15 in 10.0 mi NNW 5.8 mph - N/A   Clear
5:13 PM 60.3 °F - 17.4 °F 19% 30.14 in 10.0 mi NW 10.4 mph - N/A   Clear
5:32 PM 59.4 °F - 18.0 °F 20% 30.14 in 10.0 mi NNW 11.5 mph - N/A   Clear
5:53 PM 59.5 °F - 17.1 °F 19% 30.14 in 10.0 mi NW 8.1 mph 16.1 mph N/A   Clear
6:13 PM 59.4 °F - 15.8 °F 18% 30.13 in 10.0 mi NW 8.1 mph - N/A   Clear
6:32 PM 59.5 °F - 16.2 °F 18% 30.12 in 7.0 mi NNW 6.9 mph - N/A   Clear
6:53 PM 59.5 °F - 17.2 °F 19% 30.11 in 10.0 mi NNW 9.2 mph - N/A   Clear
7:13 PM 59.0 °F - 16.9 °F 19% 30.11 in 10.0 mi WNW 6.9 mph - N/A   Clear
7:32 PM 58.1 °F - 18.3 °F 21% 30.11 in 10.0 mi NNW 8.1 mph - N/A   Clear
7:53 PM 57.6 °F - 18.7 °F 22% 30.11 in 10.0 mi NNW 5.8 mph - N/A   Clear
8:12 PM 56.3 °F - 20.7 °F 25% 30.11 in 10.0 mi North 3.5 mph - N/A   Clear
8:33 PM 53.6 °F - 20.1 °F 27% 30.10 in 10.0 mi North 3.5 mph - N/A   Clear
8:53 PM 53.2 °F - 19.8 °F 27% 30.10 in 10.0 mi Calm Calm - N/A   Clear
9:12 PM 52.9 °F - 19.4 °F 27% 30.10 in 10.0 mi Calm Calm - N/A   Clear
9:33 PM 49.8 °F - 20.3 °F 31% 30.11 in 10.0 mi Calm Calm - N/A   Clear
9:53 PM 48.7 °F - 20.7 °F 33% 30.11 in 10.0 mi NE 3.5 mph - N/A   Clear
10:13 PM 49.1 °F - 19.0 °F 30% 30.11 in 10.0 mi ENE 4.6 mph - N/A   Clear
10:32 PM 52.3 °F - 18.0 °F 26% 30.11 in 10.0 mi East 4.6 mph - N/A   Clear
10:53 PM 50.7 °F - 17.8 °F 27% 30.11 in 10.0 mi East 4.6 mph - N/A   Clear
11:13 PM 50.7 °F - 18.5 °F 28% 30.11 in 10.0 mi ESE 4.6 mph - N/A   Clear
11:33 PM 46.4 °F 44.3 °F 22.8 °F 39% 30.11 in 10.0 mi ESE 4.6 mph - N/A   Clear
11:53 PM 45.7 °F 42.7 °F 22.8 °F 41% 30.10 in 7.0 mi ESE 5.8 mph - N/A   Clear